Location: Azul
(36.7830°S, 59.8500°W)
Time: 02:28:32
(UTC-03:00)

CAS-4A - Pass Details

Date: 23 October 2021
Orbit: 529 x 539 km, 43.0° (Epoch: 04 December)

Event Time Altitude Azimuth Distance (km) Brightness Sun altitude
Exits shadow 03:38:49 47° 121° (ESE) 720 ? -26.6°
Drops below altitude 10° 03:41:48 10° 116° (ESE) 1,794 ? -26.1°
Sets 03:44:03 0° 115° (ESE) 2,688 ? -25.8°
